Regional Weather Roundup
Issued by NWS

Home | Current Version | Previous Version | Text Only | Print | Product List | Glossary Off
Versions: 1 2 3 4 5 6 7 8 9 10 11 12 13 14 15 16 17 18 19 20 21 22 23 24 25 26 27 28 29

000
ASUS45 KPSR 290110
RWRAZ

ARIZONA HOURLY REGIONAL WEATHER ROUNDUP
NATIONAL WEATHER SERVICE PHOENIX AZ
600 PM MST THU APR 28 2016

NOTE: FAIR INDICATES FEW OR NO CLOUDS BELOW 12,000 FEET WITH NO
SIGNIFICANT WEATHER AND/OR OBSTRUCTIONS TO VISIBILITY.

AZZ001>003-036-290200-
NORTHWEST ARIZONA

CITY           SKY/WX    TMP DP  RH WIND       PRES   REMARKS
BULLHEAD CITY  PTSUNNY   70  45  40 SW6       29.73R
KINGMAN        PTSUNNY   54  46  74 E5        29.78S
$$

AZZ004>008-015-016-018-290200-
NORTH CENTRAL ARIZONA

CITY           SKY/WX    TMP DP  RH WIND       PRES   REMARKS
GRAND CANYON   CLOUDY    39  36  89 S8        29.82R WCI  33
WILLIAMS       CLOUDY    37  34  87 S6        29.90R WCI  33
PRESCOTT       CLOUDY    47  39  74 N7        29.81R
FLAGSTAFF      PTSUNNY   39  30  70 W10       29.83R WCI  32
PAYSON         MOSUNNY   55  12  18 VRB7G14   29.81R
PAGE           MOSUNNY   55  35  47 NW3       29.72R
$$

AZZ009>014-017-290200-
NORTHEAST ARIZONA

CITY           SKY/WX    TMP DP  RH WIND       PRES   REMARKS
WINSLOW        SUNNY     59  14  17 SW16      29.76R
SAINT JOHNS    PTSUNNY   57  18  21 SW31G38   29.75R
WINDOW ROCK    MOSUNNY   53  14  21 SW22G33   29.78S
SHOW LOW       PTSUNNY   50  12  22 S20G26    29.81R
$$

AZZ023-290200-
GREATER PHOENIX AREA

CITY           SKY/WX    TMP DP  RH WIND       PRES   REMARKS
PHOENIX        MOSUNNY   73  24  16 W12       29.68S
BUCKEYE        MOSUNNY   72  27  18 NW12      29.71S
GLENDALE       MOSUNNY   73  28  19 SW13G18   29.69F
LUKE AFB       FAIR      74  28  18 W7        29.67S
DEER VALLEY    SUNNY     71  24  17 SW10      29.68F
SCOTTSDALE     SUNNY     72  20  14 W8        29.70F
MESA-FALCON    MOSUNNY  N/A N/A N/A W12G17    29.68S
MESA-GATEWAY   MOSUNNY   72  21  15 W16       29.71S
CHANDLER       SUNNY     73  19  13 MISG      29.70R
$$

AZZ027-028-290200-
SOUTHWEST MARICOPA COUNTY AND PINAL COUNTY

CITY           SKY/WX    TMP DP  RH WIND       PRES   REMARKS
CASA GRANDE    SUNNY     72  25  17 W16G22    29.73R
GILA BEND      MOSUNNY   74  31  20 W13       29.69S
$$

AZZ503-504-507>509-290200-
SOUTHEAST ARIZONA

CITY           SKY/WX    TMP DP  RH WIND       PRES   REMARKS
TUCSON         PTSUNNY   72  31  22 W15G23    29.73R
DAVIS-MONTHAN  PTSUNNY   73  32  22 W20G28    29.71R
RYAN FIELD     PTSUNNY   73  32  21 W14G28    29.73R
NOGALES        MOSUNNY   65  24  21 SW23G37   29.77R
SIERRA VISTA   MOSUNNY   67  16  14 SW21G28   29.76R
DOUGLAS        SUNNY     72  19  13 W26G36    29.73R
SAFFORD        CLOUDY    69  31  24 W22G29    29.67R
$$

AZZ020-021-025-026-031-290200-
SOUTHWEST ARIZONA

CITY           SKY/WX    TMP DP  RH WIND       PRES   REMARKS
YUMA           MOSUNNY   75  40  28 W15       29.72S
$$

CAZ031-033-041-043-047-048-061-290200-
SOUTHERN CALIFORNIA

CITY           SKY/WX    TMP DP  RH WIND       PRES   REMARKS
DOWNTOWN L.A.  SUNNY     64  49  57 VRB3      29.85S
L.A. AIRPORT   MOSUNNY   62  49  62 SW12      29.87R
SAN DIEGO      MOSUNNY   63  49  60 SW8       29.92R
BURBANK        MOSUNNY   64  46  52 S12       29.85R
ONTARIO        MOSUNNY   64  42  44 W17       29.85R
RIVERSIDE      MOSUNNY   66  43  43 W10       29.85R
PALM SPRINGS   MOSUNNY   78  33  19 NW16G33   29.71R
EL CENTRO NAS  MOSUNNY   76  38  25 W22       29.74S
IMPERIAL       MOSUNNY   76  40  27 SW18G29   29.71S
BLYTHE         PTSUNNY   76  39  26 SE8       29.69R
NEEDLES        PTSUNNY   71  45  39 S8        29.70S
$$

NVZ020-UTZ003-290200-
SOUTHERN NEVADA-UTAH

CITY           SKY/WX    TMP DP  RH WIND       PRES   REMARKS
LAS VEGAS      TSTM      56  50  80 NE12      29.70R
SALT LAKE CITY CLOUDY    53  33  46 E12       29.77R
$$

NMZ009-TXZ055-290200-
NEW MEXICO-WEST TEXAS

CITY           SKY/WX    TMP DP  RH WIND       PRES   REMARKS
ALBUQUERQUE    MOCLDY    71   9   9 S26G32    29.68S
EL PASO        FAIR      79  20  11 W15       29.67F
$$


........................KEY........................
SKY/WX - SKY CONDITION/WEATHER
TMP    - TEMPERATURE IN FAHRENHEIT
DP     - DEW POINT IN FAHRENHEIT
RH     - RELATIVE HUMIDITY IN PERCENT
WIND   - DIRECTION AND SPEED IN MILES PER HOUR (MPH)
VRB    - VARIABLE WIND DIRECTION
PRES   - MEAN SEA LEVEL PRESSURE IN INCHES OF MERCURY
         F - FALLING PRESSURE   R - RISING PRESSURE
         S - STEADY PRESSURE
VSB    - VISIBILITY IN MILES
HX     - HEAT INDEX IN FAHRENHEIT
WCI    - WIND CHILL INDEX IN FAHRENHEIT
TC     - TEMPERATURE IN CELSIUS WHICH IS ALSO KNOWN AS
         TEMPERATURE IN CENTIGRADE
AFB    - AIR FORCE BASE
         LUKE AFB IS LUKE AIR FORCE BASE
         DAVIS-MONTHAN IS DAVIS-MONTHAN AIR FORCE BASE
NAS    - NAVAL AIR STATION
         EL CENTRO NAS IS EL CENTRO NAVAL AIR STATION
N/A    - NOT AVAILABLE





USA.gov is the U.S. government's official web portal to all federal, state and local government web resources and services.